Tracking 29493 objects as of 8-Sep-2024
HD Live streaming from Space Station
objects crossing your sky now

OBJECT J

Track OBJECT J now!
10-day predictions


NORAD ID: 44887
Int'l Code: 2019-093J
Perigee: 602.6 km
Apogee: 623.1 km
Inclination: 97.8 °
Period: 96.8 minutes
Semi major axis: 6983 km
RCS: Unknown
Launch date: December 20, 2019
Source: (TBD)
Launch site: Taiyaun Space Center, China (TSC)

Note: This is a ROCKET BODY
Your satellite tracking list
Your tracking list is empty




NASA's NSSDC Master Catalog

Two Line Element Set (TLE):
1 44887U 19093J   24252.50721376  .00007786  00000-0  86239-3 0  9998
2 44887  97.8385 333.0146 0014629  56.6779 303.5836 14.87510476255660
Source of the keplerian elements: AFSPC